{"data":{"norad_id":59904,"epoch":"2026-05-25T03:54:24.298272Z","epoch_age_seconds":71725,"freshness":"FRESH","line1":"1 59904U 24100V   26145.16278123 -.00000045  00000+0  78904-5 0  9994","line2":"2 59904  43.0009  53.4102 0001286 274.9198  85.1507 15.27583228112842","mean_motion":15.27583228,"eccentricity":0.0001286,"inclination_deg":43.0009,"raan_deg":53.4102,"arg_perigee_deg":274.9198,"mean_anomaly_deg":85.1507,"bstar":7.8904e-6,"rev_number":11284,"period_min":94.266549514643,"perigee_km":482.15708297448,"apogee_km":483.92177755234,"semimajor_km":6861.1764302634,"source":"CELESTRAK","updated_at":"2026-05-25T13:38:19.120330Z"}}